Memmingen Airport

Airport
ICAO code: 
EDJA
Summary
ICAO Region: 
EUR
Territory: 
Location: 
Memmingen,
Coordinates: 
Aerial View: 
47° 59' 18.755" N, 10° 14' 21.019" E
Airport CFIT: 
Altimeter Temperature Error Correction
Metar
Observation
EDJA 221050Z 23015KT 4500 -SN BKN018 OVC030 M01/M04 Q1032
Station
MEMMINGERBERG
Date/Time
2022-01-22 10:50:00
Wind direction
230°
Wind speed
15 kts
Lowest cloud amount
broken clouds
Temperature
-1°C
Dew point
-4°C
Humidity
80%
QNH
1032 hPa
Weather condition
n/a

Description

Regional airport serving Memmingen, Germany.

Climatology

Temperate Marine climate/Oceanic climate (Köppen climate classification Cfb) - Moderately cool summer and comparatively warm winter.

Runways

Designator Length Width Surface Rops
6/24 2981 30 ASP Yes/Yes
Airport map: 
Aerial View: 

Accidents and Serious Incidents at or in the vicinity of EDJA

SKYbrary Partners:

Safety knowledge contributed by: